CST,Max TemperatureF,Mean TemperatureF,Min TemperatureF,Max Dew PointF,MeanDew PointF,Min DewpointF,Max Humidity, Mean Humidity, Min Humidity, Max Sea Level PressureIn, Mean Sea Level PressureIn, Min Sea Level PressureIn, Max VisibilityMiles, Mean VisibilityMiles, Min VisibilityMiles, Max Wind SpeedMPH, Mean Wind SpeedMPH, Max Gust SpeedMPH,PrecipitationIn, CloudCover, Events, WindDirDegrees
2013-12-1,59,48,36,41,36,32,82,60,37,30.29,30.18,30.01,10,10,10,8,2,12,0.00,7,,188
2013-12-2,56,53,49,54,49,41,93,76,59,30.01,29.91,29.81,10,7,2,13,2,15,0.21,8,Rain,158
2013-12-3,64,59,54,61,56,51,100,92,84,29.86,29.82,29.78,10,7,1,9,3,14,0.00,7,,141
2013-12-4,74,69,64,65,63,61,93,81,68,30.00,29.92,29.86,10,9,6,20,10,23,0.00,7,,179
2013-12-5,77,73,68,68,66,64,93,79,64,30.07,30.00,29.94,10,9,3,18,9,24,0.02,7,Rain,195
2013-12-6,72,55,38,68,54,36,100,92,84,30.24,30.03,29.94,10,7,1,25,8,32,0.30,8,Rain,301
2013-12-7,40,38,35,36,34,32,92,86,79,30.42,30.34,30.25,10,8,7,18,10,22,0.00,8,,4
2013-12-8,58,49,40,57,49,36,100,90,79,30.25,30.15,30.07,10,4,1,12,3,15,2.57,8,Rain-Thunderstorm,107
2013-12-9,57,50,42,54,46,40,100,90,80,30.20,30.12,30.05,10,5,1,14,6,16,0.10,8,Rain,341
2013-12-10,52,40,28,41,34,25,100,77,53,30.41,30.25,30.06,10,7,1,20,7,25,0.55,6,Rain,329
2013-12-11,57,41,25,32,26,22,92,59,26,30.47,30.43,30.38,10,10,7,10,2,13,0.00,2,,14
2013-12-12,46,36,26,25,19,10,85,54,23,30.58,30.50,30.41,10,10,7,15,6,20,0.00,0,,360
2013-12-13,50,39,27,27,21,16,69,47,24,30.41,30.27,30.11,10,10,10,9,3,13,0.00,5,,111
2013-12-14,57,49,41,54,48,29,93,68,42,30.08,29.92,29.83,10,7,1,25,9,33,0.71,8,Rain,257
2013-12-15,41,37,32,35,31,28,86,78,70,30.30,30.20,30.02,10,10,8,18,9,26,0.00,8,,327
2013-12-16,57,42,26,32,29,25,92,62,32,30.34,30.28,30.23,10,9,4,14,3,17,0.00,1,,263
2013-12-17,63,47,31,38,34,29,92,63,34,30.30,30.25,30.17,10,10,10,18,6,22,0.00,0,,267
2013-12-18,57,44,30,31,26,20,92,58,23,30.41,30.33,30.28,10,10,10,8,1,12,0.00,0,,354
2013-12-19,64,49,33,33,29,26,75,51,27,30.34,30.24,30.15,10,10,10,12,4,16,0.00,4,,148
2013-12-20,68,61,53,59,48,34,78,61,43,30.17,30.11,30.04,10,10,10,16,7,24,0.00,7,,155
2013-12-21,74,68,62,67,64,58,100,87,73,30.02,29.89,29.81,10,9,2,26,13,36,0.05,7,Rain,167
2013-12-22,73,64,54,67,55,52,93,87,80,30.12,29.96,29.81,10,8,1,30,5,40,1.10,8,Rain-Thunderstorm,206
2013-12-23,54,43,31,52,39,26,93,82,70,30.45,30.28,30.10,10,9,5,22,10,26,0.04,7,Rain,330
2013-12-24,40,33,25,27,22,17,92,68,44,30.55,30.48,30.42,10,10,9,16,7,21,0.00,0,,346
2013-12-25,50,35,20,30,22,16,92,62,32,30.47,30.40,30.34,10,10,10,9,2,13,0.00,2,,93
2013-12-26,55,41,27,31,27,21,92,62,32,30.42,30.38,30.32,10,10,10,12,2,17,0.00,2,,350
2013-12-27,55,40,25,30,26,19,92,58,24,30.48,30.42,30.38,10,10,10,9,2,14,0.00,3,,81
2013-12-28,46,44,41,41,37,28,89,71,53,30.38,30.14,29.94,10,5,2,15,5,23,1.35,8,Rain,51
2013-12-29,53,47,41,43,41,39,96,82,68,30.12,30.02,29.94,10,8,4,12,3,14,0.06,7,Rain,290
2013-12-30,47,42,37,40,38,33,100,88,76,30.31,30.20,30.12,10,8,5,8,2,10,0.00,7,,342
2013-12-31,44,39,34,34,30,25,89,69,49,30.48,30.40,30.31,10,10,9,14,5,18,0.00,7,,346